TimeEDT,TemperatureF,Dew PointF,Humidity,Sea Level PressureIn,VisibilityMPH,Wind Direction,Wind SpeedMPH,Gust SpeedMPH,PrecipitationIn,Events,Conditions,WindDirDegrees,DateUTC
12:53 AM,62.1,61.0,96,30.17,7.0,Calm,Calm,-,N/A,,Clear,0,2013-09-19 04:53:00
1:53 AM,61.0,60.1,97,30.17,7.0,Calm,Calm,-,N/A,,Clear,0,2013-09-19 05:53:00
2:53 AM,60.1,59.0,96,30.15,7.0,Calm,Calm,-,N/A,,Clear,0,2013-09-19 06:53:00
3:53 AM,60.1,59.0,96,30.16,7.0,Calm,Calm,-,N/A,,Clear,0,2013-09-19 07:53:00
4:53 AM,59.0,57.9,96,30.15,6.0,Calm,Calm,-,N/A,,Clear,0,2013-09-19 08:53:00
5:53 AM,57.9,57.0,97,30.15,7.0,Calm,Calm,-,N/A,,Clear,0,2013-09-19 09:53:00
6:53 AM,57.9,55.9,93,30.16,7.0,Calm,Calm,-,N/A,,Clear,0,2013-09-19 10:53:00
7:53 AM,57.9,57.0,97,30.18,6.0,Calm,Calm,-,N/A,,Clear,0,2013-09-19 11:53:00
8:53 AM,63.0,61.0,93,30.19,10.0,Calm,Calm,-,N/A,,Clear,0,2013-09-19 12:53:00
9:53 AM,70.0,60.1,71,30.19,10.0,Calm,Calm,-,N/A,,Clear,0,2013-09-19 13:53:00
10:53 AM,75.0,59.0,57,30.19,10.0,ESE,6.9,-,N/A,,Clear,110,2013-09-19 14:53:00
11:53 AM,77.0,59.0,54,30.19,10.0,SSE,5.8,-,N/A,,Clear,160,2013-09-19 15:53:00
12:53 PM,78.1,59.0,52,30.18,10.0,Calm,Calm,-,N/A,,Clear,0,2013-09-19 16:53:00
1:53 PM,82.0,60.1,47,30.15,10.0,Variable,4.6,-,N/A,,Clear,0,2013-09-19 17:53:00
2:53 PM,82.0,59.0,45,30.13,10.0,SSW,3.5,-,N/A,,Clear,210,2013-09-19 18:53:00
3:53 PM,84.9,60.1,43,30.10,10.0,Calm,Calm,-,N/A,,Clear,0,2013-09-19 19:53:00
4:53 PM,84.9,60.1,43,30.09,10.0,Calm,Calm,-,N/A,,Clear,0,2013-09-19 20:53:00
5:53 PM,84.0,59.0,43,30.09,10.0,Calm,Calm,-,N/A,,Clear,0,2013-09-19 21:53:00
6:53 PM,78.1,66.9,68,30.10,10.0,Calm,Calm,-,N/A,,Clear,0,2013-09-19 22:53:00
7:53 PM,71.1,66.9,87,30.10,10.0,Calm,Calm,-,N/A,,Clear,0,2013-09-19 23:53:00
8:53 PM,69.1,66.0,90,30.11,9.0,Calm,Calm,-,N/A,,Clear,0,2013-09-20 00:53:00
9:53 PM,66.9,64.9,93,30.10,9.0,Calm,Calm,-,N/A,,Clear,0,2013-09-20 01:53:00
10:53 PM,64.9,64.0,97,30.10,7.0,Calm,Calm,-,N/A,,Clear,0,2013-09-20 02:53:00
11:53 PM,64.0,63.0,96,30.09,6.0,Calm,Calm,-,N/A,,Clear,0,2013-09-20 03:53:00